GFSFLT1_850_thetae_000.txt.gz
Theta_e
344 346 347 348 348 348 349 349 350 344 341 334 332 333 329 326 331 326 324 325 321 325 332 331 320 320 322 326 325 323 321 325 329
343 344 347 348 348 349 350 350 350 343 337 330 328 328 326 326 327 327 321 320 316 321 325 321 322 325 321 324 326 326 324 322 321
342 343 346 347 348 349 350 349 349 348 339 327 326 327 326 327 325 324 323 319 316 316 318 321 323 325 322 324 324 323 324 323 319
340 341 344 346 347 347 349 349 349 349 344 337 327 326 327 327 329 330 330 322 317 319 320 321 323 320 321 323 325 322 319 318 322
337 338 341 343 344 346 347 348 348 348 348 342 337 330 333 329 330 336 339 325 319 319 318 318 319 319 321 322 324 322 322 321 322
337 337 338 341 343 344 344 346 347 348 348 347 342 340 340 341 338 340 340 333 324 319 318 317 320 321 320 320 321 322 319 321 323
337 337 338 339 341 342 342 343 344 346 347 347 347 342 341 343 344 341 345 336 328 324 319 320 320 320 320 321 322 321 319 320 323
336 336 337 339 339 340 341 342 343 344 345 347 347 346 342 341 343 346 347 337 332 325 322 322 322 320 321 323 324 323 322 323 324
338 338 338 338 338 339 339 339 339 341 343 344 345 345 345 345 348 349 345 336 335 332 327 324 323 323 323 325 326 323 324 325 325
339 340 339 339 339 338 337 336 337 339 340 342 343 345 346 348 349 348 345 339 333 338 326 323 322 323 326 325 326 323 327 328 328
337 338 338 339 337 336 337 338 339 339 340 340 341 342 346 348 349 348 345 337 333 338 328 322 323 327 327 324 327 325 329 331 330
333 334 335 335 338 335 329 328 331 334 338 342 344 344 346 347 348 347 345 340 331 336 338 331 330 331 330 329 326 328 329 328 330
334 336 336 332 329 329 329 329 329 330 336 342 343 346 348 348 348 346 342 339 333 336 336 337 335 333 333 331 331 332 330 330 327
333 332 332 333 333 333 332 331 332 333 333 335 340 345 350 348 347 346 341 337 338 338 337 336 331 330 326 327 326 327 329 329 325
327 328 328 328 328 328 327 327 333 336 336 341 338 347 349 346 344 343 340 337 337 337 335 333 330 330 327 327 325 329 328 324 322
330 330 330 330 329 328 327 327 332 328 340 338 344 348 346 343 341 341 338 336 334 333 330 328 329 324 327 327 328 329 323 320 322
329 330 331 331 331 332 336 336 342 342 344 345 346 342 341 340 337 336 332 328 327 329 329 329 326 324 327 327 328 325 323 323 324
331 333 332 331 332 331 338 340 344 344 346 344 340 338 338 339 338 336 333 331 330 328 327 324 324 327 326 327 327 325 324 323 322
335 335 332 334 336 335 334 333 338 342 341 338 336 333 331 330 335 332 329 330 331 328 325 323 325 325 327 326 325 324 323 322 320
326 328 334 337 335 334 336 338 340 340 339 337 335 331 328 327 327 328 327 327 327 325 324 326 326 327 325 324 323 321 320 318 317

GFSFLT1_850_thetae_003.txt.gz
Theta_e
344 345 345 346 346 345 346 347 347 347 349 347 345 343 342 342 343 343 331 328 330 328 327 328 332 329 323 325 328 326 322 323 325
345 345 345 346 346 345 346 347 347 348 350 348 340 336 338 340 341 339 330 327 330 327 323 328 329 321 323 323 324 324 324 325 322
343 345 346 347 347 345 346 347 348 347 347 347 334 333 334 334 335 329 327 326 328 327 318 327 322 320 325 324 322 323 325 325 324
343 345 346 347 348 346 345 346 348 348 348 347 343 332 330 331 330 326 327 327 319 318 318 317 319 321 324 323 322 322 320 319 318
340 345 344 347 348 348 346 347 347 348 350 349 347 337 329 329 329 327 324 323 341 319 317 321 318 321 322 320 322 323 322 322 325
339 342 345 346 348 348 346 346 347 348 348 348 348 348 341 331 330 330 329 329 335 326 319 324 323 324 320 320 320 321 322 320 322
340 339 342 343 346 342 342 342 344 345 347 349 349 348 348 344 335 334 341 341 345 327 324 323 324 320 319 320 321 321 321 320 322
339 340 342 341 339 338 339 341 342 343 344 346 347 348 348 349 347 346 346 348 344 330 328 328 328 324 321 323 322 322 322 324 326
340 338 337 337 337 338 338 339 340 341 343 344 345 346 348 349 349 349 347 348 346 341 334 330 329 326 331 328 325 323 325 328 328
341 338 337 337 338 338 339 339 340 340 340 341 342 343 345 347 347 347 348 347 346 338 337 333 332 329 335 329 328 324 326 327 328
340 341 340 338 337 337 337 337 338 338 338 339 339 341 343 345 346 347 347 346 343 340 338 335 331 331 332 333 333 329 328 330 329
332 333 335 337 338 337 334 330 329 330 331 332 336 340 343 344 345 346 347 346 343 337 338 334 332 329 332 332 332 331 328 326 326
332 333 335 336 330 327 327 328 328 329 328 330 333 338 342 346 347 347 346 346 343 341 335 334 334 335 333 333 332 330 328 326 327
333 336 333 329 329 329 331 332 332 331 331 332 335 338 342 349 348 346 345 344 341 337 332 333 335 334 335 333 328 327 327 326 326
331 331 331 331 333 332 331 329 330 330 330 333 336 341 344 347 347 345 344 343 340 336 335 335 336 335 334 329 326 326 327 326 327
332 331 332 333 333 332 332 330 329 329 332 337 340 340 344 344 343 342 341 341 340 336 336 336 336 334 329 327 325 325 327 326 325
330 331 331 333 331 331 333 334 333 335 340 341 342 344 343 339 338 338 338 339 337 334 330 329 328 327 325 325 325 326 328 324 323
334 332 331 331 331 330 336 337 342 344 344 344 342 336 336 335 336 336 337 336 333 329 328 329 329 327 325 327 326 326 326 324 324
331 335 337 335 335 333 334 336 340 343 343 341 339 339 337 335 334 334 335 333 329 327 328 326 325 325 325 324 326 326 324 323 322
326 326 328 333 337 334 334 336 339 341 340 338 338 334 332 333 333 334 333 332 331 329 327 324 325 326 325 326 326 323 320 319 319

GFSFLT1_850_thetae_006.txt.gz
Theta_e
345 347 344 344 345 346 349 350 351 353 353 346 347 347 346 347 351 355 353 352 347 344 342 340 341 333 335 334 337 336 326 331 333
343 346 346 343 345 346 348 350 351 350 350 348 347 348 346 345 345 347 352 352 352 346 344 340 344 331 333 334 337 334 331 331 333
343 345 346 345 344 345 347 348 350 350 349 348 349 350 344 342 343 342 346 353 351 339 346 336 342 334 329 324 332 332 329 332 333
341 344 346 346 345 345 347 347 348 350 353 353 350 350 341 337 344 348 338 343 334 338 337 331 327 328 326 329 321 332 333 332 331
335 342 345 347 347 347 347 348 347 348 350 352 353 343 339 339 347 345 342 333 330 322 331 323 318 321 324 328 327 334 336 334 331
339 344 346 348 348 349 350 349 349 350 352 352 353 354 354 347 340 341 350 335 329 332 333 320 319 326 323 325 331 333 335 335 334
340 345 346 348 348 350 351 351 351 352 352 353 354 354 356 356 351 353 352 344 334 333 336 321 320 326 329 329 330 329 332 335 335
340 346 346 348 349 351 352 352 353 355 355 354 354 356 356 358 358 358 354 347 337 341 339 328 324 325 326 329 327 323 327 333 333
339 345 346 348 351 352 355 355 356 356 356 355 356 357 357 357 359 357 353 349 346 345 346 339 332 328 327 331 326 323 329 329 333
339 344 345 347 349 351 354 355 356 356 355 355 355 356 357 357 357 352 350 349 348 347 347 342 336 330 332 331 327 327 328 325 328
339 344 345 346 347 350 352 352 352 352 348 341 349 349 352 354 350 348 346 347 346 347 346 344 336 333 335 332 331 328 334 333 330
341 345 347 347 347 349 348 348 346 340 340 339 342 344 347 344 345 346 345 346 346 345 345 342 339 337 337 336 336 333 335 332 333
338 343 344 345 344 345 345 342 335 333 341 336 334 333 336 337 341 345 346 347 346 345 342 340 340 339 337 336 336 329 329 332 331
341 343 345 345 344 342 334 332 338 344 342 336 332 333 335 336 341 347 348 347 345 344 342 339 338 338 338 336 334 330 333 331 329
345 344 342 341 342 341 343 340 336 331 332 330 332 336 340 341 346 346 345 345 345 345 342 340 338 336 338 336 337 335 330 326 329
341 340 340 341 344 346 344 338 341 335 331 331 333 335 340 345 347 346 344 344 345 343 344 340 339 338 338 337 338 331 328 328 327
343 344 343 343 344 340 331 330 330 329 331 334 336 337 341 343 342 344 344 344 342 341 340 339 338 339 337 335 330 329 326 327 327
343 344 343 342 342 344 332 332 332 334 337 341 342 344 344 346 346 343 341 343 340 340 337 337 335 334 328 329 331 333 330 328 327
346 345 345 346 346 343 341 340 342 343 344 345 349 347 344 342 342 341 341 338 338 335 334 329 328 328 328 326 327 326 326 326 324
335 333 338 347 346 347 343 344 346 344 344 345 343 343 338 339 339 337 338 337 334 331 328 328 328 325 326 324 324 326 325 323 321

GFSFLT1_850_thetae_009.txt.gz
Theta_e
340 346 347 344 346 348 350 350 352 354 356 358 355 358 356 355 353 354 351 352 352 348 346 345 345 345 345 342 340 341 339 335 334
337 342 346 346 344 346 348 349 352 353 355 355 355 359 356 355 355 353 352 351 350 351 346 344 343 347 345 343 339 340 337 331 336
337 339 345 346 345 345 346 349 351 353 355 356 354 357 358 358 358 356 352 353 351 352 347 343 342 346 342 338 332 333 329 334 335
337 338 344 346 346 345 346 347 349 352 353 355 354 356 357 357 356 357 354 349 351 352 348 348 344 337 329 324 331 322 318 333 334
336 337 341 345 346 346 346 346 347 348 350 352 355 356 356 354 351 353 355 351 352 350 347 347 338 323 319 324 324 329 323 320 333
335 337 339 344 346 346 347 347 347 346 348 348 352 355 356 357 353 350 350 353 351 346 348 346 332 325 317 322 321 323 320 322 325
337 338 344 343 346 347 348 348 348 346 346 346 349 353 354 355 355 352 353 353 352 347 351 346 327 326 317 318 322 325 327 328 322
334 335 344 346 348 349 350 350 350 349 347 347 350 352 354 354 356 356 355 354 354 355 353 346 332 328 322 317 323 329 329 329 322
334 334 336 347 349 350 353 353 354 353 351 351 352 354 355 357 359 359 358 356 357 356 354 351 344 338 325 320 324 334 333 331 321
334 334 334 345 348 351 353 355 356 356 355 354 355 355 358 358 360 359 360 359 358 356 353 349 346 343 329 322 329 333 328 328 328
333 334 334 340 347 351 355 355 355 357 359 357 358 358 358 359 359 361 361 359 357 354 351 349 347 344 330 334 336 333 331 328 328
333 334 335 342 348 351 355 356 356 358 359 360 360 361 360 360 361 363 360 356 353 349 349 348 345 341 336 337 340 339 336 331 333
339 339 336 346 349 351 356 356 358 358 358 358 358 359 359 359 359 357 357 353 349 349 348 347 344 341 340 342 342 339 337 335 332
340 339 346 350 350 355 354 353 354 355 354 354 353 353 352 353 355 353 353 350 350 350 348 346 343 342 341 342 341 339 338 331 331
342 344 347 349 350 352 352 351 351 350 350 348 350 351 355 354 353 353 353 353 349 348 346 343 343 342 342 343 340 340 334 332 330
348 349 349 349 350 348 347 348 350 351 352 352 354 355 356 353 349 353 351 350 347 346 343 342 342 341 342 342 338 338 337 331 332
344 344 346 347 348 350 352 352 353 359 356 356 356 350 343 345 351 352 347 348 345 343 342 341 343 342 339 338 338 337 334 331 328
345 345 345 346 349 350 351 353 354 352 353 354 351 350 352 354 351 347 345 344 342 341 343 341 341 340 339 338 333 329 328 327 327
345 345 346 347 348 349 351 352 351 350 349 351 350 350 349 344 343 343 343 341 340 340 339 338 337 332 331 332 329 330 328 328 328
342 344 345 345 346 348 350 351 350 346 353 351 348 347 346 343 344 343 343 340 340 337 335 330 328 328 327 325 325 326 327 327 326

GFSFLT1_850_thetae_012.txt.gz
Theta_e
346 348 347 347 347 348 351 351 352 355 357 356 356 354 355 353 349 352 346 350 350 351 349 345 348 347 346 334 333 326 325 322 320
343 347 348 346 348 348 351 352 351 354 358 357 357 356 354 353 350 348 352 348 352 353 348 347 345 346 346 344 331 331 334 325 333
339 337 347 348 346 349 350 352 352 354 356 357 357 357 354 355 352 349 346 350 351 351 354 347 347 345 343 337 330 326 329 325 334
338 337 341 347 347 347 350 352 353 354 356 358 359 359 355 353 352 344 345 349 352 351 350 351 346 345 343 340 327 329 327 326 330
338 337 339 343 347 347 348 350 352 354 356 358 360 360 356 351 346 347 342 345 347 352 353 352 349 344 341 341 330 324 324 324 328
339 338 338 343 345 348 347 348 350 353 355 357 361 361 356 353 349 348 341 336 338 348 351 349 350 345 344 338 330 325 324 327 321
338 337 336 344 344 349 347 348 349 351 354 356 358 360 358 356 352 345 337 338 341 341 343 347 349 347 342 339 330 327 324 327 324
336 338 342 341 344 345 348 348 349 349 350 352 353 356 358 358 354 350 350 350 349 345 349 350 349 352 349 345 336 331 328 331 329
338 336 337 344 341 346 349 349 349 349 348 350 350 351 355 355 357 356 356 356 355 358 356 357 356 355 354 349 342 333 325 329 334
340 338 335 340 347 346 351 353 350 350 348 349 348 349 353 352 354 356 357 357 358 357 358 357 357 356 355 352 346 335 332 336 336
336 337 335 334 339 348 349 355 355 353 352 349 349 349 352 353 354 357 357 358 358 358 358 358 358 357 354 351 346 336 330 334 332
332 331 339 335 333 346 348 353 355 357 356 352 352 353 356 357 360 361 362 361 362 361 360 359 357 353 349 348 342 333 330 330 334
331 331 333 334 335 345 349 353 355 357 358 358 354 357 357 362 363 366 365 363 362 362 359 356 351 349 347 345 342 338 339 341 338
337 331 331 336 347 350 350 354 358 358 360 362 360 361 363 362 363 363 363 362 360 355 352 351 348 346 343 342 341 341 342 340 338
342 341 341 342 349 352 356 357 360 361 361 362 363 363 362 361 361 360 360 358 354 354 349 348 347 344 343 342 342 342 341 339 338
334 343 349 353 358 359 359 359 360 360 360 359 359 358 358 359 357 355 355 353 350 349 348 345 344 343 342 342 342 342 339 339 334
350 351 351 353 355 356 356 357 357 356 355 356 355 357 356 353 352 351 351 350 350 348 345 344 342 343 342 342 340 338 337 336 335
351 351 351 352 352 355 356 358 358 356 356 355 354 354 353 353 351 348 350 348 346 344 343 343 343 341 340 340 338 338 331 328 327
350 351 352 354 355 356 358 358 354 354 353 350 345 348 346 350 347 346 347 345 343 343 342 342 340 340 338 336 335 331 327 324 326
346 347 349 348 352 352 351 351 351 351 352 351 350 349 349 348 345 344 343 342 340 339 339 338 337 337 330 329 328 326 324 325 326

GFSFLT1_850_thetae_015.txt.gz
Theta_e
343 343 344 343 343 347 349 349 350 351 351 351 352 352 353 351 349 351 349 344 353 353 349 348 349 348 345 335 329 318 324 323 320
344 343 343 344 344 346 348 349 349 350 353 353 352 353 353 351 350 350 347 347 351 353 350 351 347 345 347 346 344 324 321 321 320
342 342 343 345 345 346 347 348 348 350 352 353 352 353 354 353 347 350 346 346 350 351 350 348 347 346 346 346 345 340 321 321 322
342 343 344 346 346 346 346 349 349 350 352 354 354 353 354 354 349 348 349 345 346 347 354 352 349 346 347 346 345 342 322 320 323
341 341 342 345 347 347 348 350 350 350 351 352 354 354 354 354 353 345 349 347 345 344 347 352 352 349 346 346 344 342 329 320 323
340 339 345 348 347 349 349 351 351 351 351 351 352 354 354 354 353 348 342 343 343 343 341 347 350 351 350 348 345 343 339 326 324
338 340 338 344 347 348 350 350 351 352 352 351 351 353 353 354 353 347 337 335 336 342 340 348 350 350 350 349 347 345 342 339 325
338 337 338 338 348 348 350 350 350 352 353 353 351 352 353 352 350 350 342 340 339 336 343 346 352 354 353 352 349 347 345 343 334
337 336 336 340 345 348 347 348 349 351 353 353 351 351 351 352 353 353 349 346 343 344 344 346 349 353 355 353 352 351 349 346 339
336 336 340 343 344 347 347 347 347 349 349 351 351 349 351 350 352 353 352 352 353 353 352 354 356 355 355 355 355 353 351 348 341
331 336 337 337 337 342 349 347 347 346 348 351 351 350 349 349 351 350 354 355 356 357 357 357 358 356 355 356 357 357 353 348 338
330 332 336 334 341 339 346 349 349 348 349 350 350 350 348 349 348 350 353 356 357 358 359 359 358 357 356 356 355 353 350 345 336
331 330 332 331 335 337 338 345 350 351 349 350 349 350 348 348 349 350 353 356 357 359 360 358 357 358 357 355 352 347 345 343 338
339 334 334 331 331 336 341 345 351 355 353 350 349 350 349 349 350 352 354 357 359 360 359 356 359 356 352 348 346 344 342 339 339
338 337 340 333 332 333 334 345 350 356 355 354 352 354 353 355 358 361 363 363 360 359 358 358 353 349 346 344 342 342 340 341 342
337 337 339 345 339 338 341 350 353 356 360 360 357 355 362 364 366 367 367 363 357 358 356 350 348 346 344 343 342 341 342 342 340
349 346 346 354 359 360 359 357 358 358 360 363 362 362 364 364 364 364 361 359 357 354 348 347 345 343 343 342 342 341 341 339 338
356 358 359 357 359 360 362 362 362 362 362 362 363 363 362 361 360 359 355 350 347 348 346 344 342 342 342 341 339 338 336 334 331
346 348 358 357 358 358 359 359 359 359 359 359 358 357 357 357 355 352 349 347 348 346 344 342 342 341 340 337 336 333 328 326 324
335 335 345 359 359 359 358 357 357 355 353 352 352 350 351 349 348 344 346 346 346 343 341 341 342 340 338 336 335 331 328 323 323

GFSFLT1_850_thetae_018.txt.gz
Theta_e
341 341 342 343 344 344 345 346 347 348 347 348 349 350 350 350 350 349 345 344 350 350 347 345 346 348 348 345 337 333 319 320 323
341 341 341 342 343 345 345 346 347 347 348 348 349 349 350 350 351 349 343 346 347 346 346 347 349 348 348 344 337 332 321 319 320
342 341 342 342 341 343 345 346 346 347 347 348 349 349 349 350 351 350 344 346 345 344 349 352 349 350 348 343 346 345 342 323 320
343 343 343 342 342 342 342 345 347 347 347 349 350 350 350 350 351 351 346 344 345 344 351 352 351 351 348 344 345 345 345 342 321
343 343 343 343 344 342 344 345 348 347 346 348 349 349 350 351 351 352 349 345 343 344 348 350 352 350 348 347 346 346 345 343 335
342 343 341 341 341 343 344 345 347 348 347 347 348 350 351 351 351 352 351 344 344 341 344 348 351 352 351 350 347 346 346 344 342
340 341 341 340 342 343 344 345 347 347 347 347 347 349 351 351 351 350 350 348 341 340 340 344 348 350 351 351 350 349 347 346 344
341 338 338 338 341 344 345 346 348 348 347 348 347 349 350 351 350 350 350 349 344 339 341 343 345 347 349 351 350 350 349 348 346
336 338 339 339 340 342 346 346 347 348 349 348 349 350 349 350 350 350 350 349 348 342 339 344 344 346 345 348 349 350 351 351 349
337 337 336 338 341 345 346 347 347 348 349 349 349 350 350 350 350 350 348 348 349 348 342 342 345 348 350 352 355 353 352 352 351
331 338 335 338 339 343 345 347 348 346 348 349 350 350 351 350 349 349 348 347 348 350 348 346 347 350 350 349 351 351 353 353 352
330 331 334 336 341 344 344 347 347 348 349 350 352 352 351 350 350 350 350 348 346 349 351 351 351 351 354 353 334 353 355 357 355
330 328 328 331 335 336 344 346 347 348 349 350 350 349 348 349 349 350 350 349 349 350 353 352 353 356 357 354 353 353 355 356 349
333 330 329 329 331 335 339 344 346 343 346 348 346 346 349 352 351 349 349 351 352 352 353 355 358 359 359 356 355 355 351 345 344
334 338 333 331 329 335 335 335 344 346 346 344 345 349 351 353 352 351 351 353 354 354 355 357 358 355 351 356 353 346 344 343 339
339 338 339 336 335 331 332 332 334 337 340 346 349 350 352 353 353 352 352 354 355 356 357 358 355 351 352 351 344 343 341 341 340
350 354 359 357 350 335 334 332 341 336 339 350 350 350 351 351 352 353 355 356 356 356 357 356 355 353 347 343 343 342 341 341 341
352 355 358 360 362 362 356 340 345 353 353 351 353 353 354 356 359 359 361 362 361 356 355 352 350 343 343 342 341 341 341 340 337
336 340 345 347 342 355 356 358 360 357 358 355 354 355 356 357 361 363 362 357 352 350 347 343 342 341 339 341 339 337 336 334 329
334 335 331 332 333 335 340 339 332 363 362 361 358 357 359 358 356 352 349 344 345 345 342 342 340 340 339 337 332 332 328 326 322

GFSFLT1_850_thetae_021.txt.gz
Theta_e
340 342 342 343 344 345 346 346 347 347 346 347 347 348 348 348 348 348 349 348 347 344 345 348 348 347 348 348 346 344 337 323 321
340 341 341 342 343 343 344 346 346 346 347 347 347 347 347 348 348 348 349 348 346 346 343 347 346 346 346 347 347 344 339 326 319
339 341 341 342 342 343 343 344 344 345 345 346 346 346 347 347 347 348 349 349 345 343 343 348 347 345 346 348 348 344 336 332 320
340 339 340 341 342 342 342 343 344 344 345 346 346 346 347 347 348 348 349 350 346 340 344 347 346 345 349 348 348 343 344 344 340
338 341 340 340 341 342 342 343 344 344 344 344 345 346 346 347 347 348 349 350 350 338 344 345 344 348 350 349 349 344 344 344 345
335 338 341 340 340 341 341 341 343 344 345 344 344 345 347 347 348 348 349 350 350 342 340 344 342 348 350 350 350 348 346 345 345
335 340 342 341 341 341 341 342 342 344 344 344 344 345 347 347 348 348 348 349 350 346 340 341 343 345 348 350 350 349 348 348 346
337 340 342 342 342 342 342 342 342 344 345 346 345 345 346 346 347 347 348 349 350 349 342 341 340 343 346 348 350 352 351 350 349
327 331 340 343 343 344 342 341 341 342 344 346 346 347 346 346 347 347 348 349 350 350 350 343 342 342 341 344 345 347 349 349 350
327 330 337 339 341 342 342 340 340 341 341 344 346 347 347 347 347 347 348 350 350 350 350 349 345 342 343 342 340 340 340 346 349
328 330 331 337 337 339 339 340 339 339 342 344 346 347 348 350 348 346 348 350 350 350 350 348 348 343 340 341 338 336 342 346 353
327 328 328 329 335 337 338 338 338 340 345 345 347 348 348 347 348 348 349 349 349 351 352 350 347 347 341 338 339 343 347 352 356
327 327 329 330 334 335 336 337 338 342 345 347 346 346 347 347 348 349 349 348 349 351 353 351 350 348 345 344 349 352 353 351 353
330 330 329 329 333 331 336 341 342 344 346 347 346 346 346 350 350 350 350 350 351 350 352 353 352 351 348 351 354 350 335 345 353
335 339 338 333 329 331 339 341 340 343 346 343 345 347 348 349 350 351 353 353 355 354 356 354 352 355 354 356 352 346 351 343 352
339 338 339 340 339 338 335 332 343 344 340 341 346 349 349 350 351 352 356 354 355 356 355 355 356 355 357 355 351 352 352 349 343
348 344 341 340 337 335 337 342 339 338 343 346 346 346 345 347 351 354 352 354 356 356 355 356 355 355 356 354 343 348 347 342 339
348 350 350 350 349 349 350 355 355 354 347 346 347 347 347 350 352 354 355 357 359 359 355 352 351 352 351 349 348 345 339 337 339
334 335 336 335 335 337 337 347 353 352 355 355 352 348 348 351 352 354 355 357 359 356 353 350 349 348 345 344 344 338 338 340 340
332 334 335 335 333 333 333 333 334 336 337 351 356 353 355 355 354 356 357 357 352 346 342 343 334 332 336 341 340 339 340 338 335

GFSFLT1_850_thetae_024.txt.gz
Theta_e
343 345 347 347 347 346 345 344 346 347 347 347 346 347 347 347 348 348 348 348 348 346 342 344 344 344 346 347 348 347 339 335 331
337 340 343 345 346 346 345 344 343 345 347 345 346 345 346 347 347 348 348 348 348 348 345 341 342 347 347 346 347 348 346 341 337
338 338 339 342 343 345 345 344 343 343 344 344 344 345 345 346 346 347 347 348 348 348 346 345 341 344 347 346 346 348 347 343 336
337 338 338 339 341 342 343 343 344 343 344 344 345 345 345 346 346 347 347 347 347 348 347 344 343 340 346 344 344 347 348 345 338
334 334 337 339 340 340 341 342 343 343 343 343 344 344 345 345 346 346 347 347 347 348 349 346 343 341 346 345 344 348 348 344 343
332 334 336 338 339 340 340 341 342 342 342 343 343 344 344 345 345 346 346 346 347 347 348 349 342 342 344 343 344 348 348 346 343
328 329 330 334 338 339 340 341 341 342 342 343 343 344 344 344 344 344 345 345 346 347 348 349 346 341 343 343 345 348 347 348 347
329 330 334 336 339 340 339 340 341 341 342 343 343 343 344 344 344 344 344 345 346 347 347 348 348 341 342 343 342 346 346 347 348
325 329 330 328 335 340 340 340 340 341 341 342 342 342 343 344 345 345 344 345 346 347 347 348 349 347 341 342 341 342 346 347 349
325 326 327 326 327 335 341 341 341 341 342 342 343 342 343 344 345 345 344 345 346 346 347 347 348 349 345 341 341 343 344 346 347
326 326 326 326 326 329 337 341 342 341 342 342 341 342 344 344 345 345 346 347 346 346 347 347 347 347 347 344 342 343 342 342 344
325 327 327 328 328 329 331 338 341 342 342 341 342 342 344 346 346 346 347 347 346 346 347 347 347 347 348 347 343 340 340 344 344
326 327 326 326 326 327 331 336 338 341 342 342 341 341 341 342 345 346 347 347 347 347 348 348 348 348 347 347 346 343 337 342 344
325 326 326 327 327 328 330 335 336 337 338 339 339 340 343 345 346 346 346 348 350 351 351 350 349 349 349 349 349 344 338 342 345
339 338 338 333 330 329 331 336 339 339 338 337 340 343 344 345 347 348 349 350 352 349 352 352 351 352 351 350 348 346 341 348 352
345 347 347 346 343 341 333 329 339 343 345 345 346 346 347 348 351 353 353 353 351 352 351 355 355 354 360 352 350 346 349 354 349
343 343 343 343 345 346 347 349 347 340 339 343 344 346 348 349 350 352 355 356 357 356 352 354 345 347 357 356 350 350 356 356 352
336 336 335 337 339 337 337 337 339 341 344 346 348 347 345 345 349 352 354 357 357 357 356 356 354 357 356 356 351 353 350 347 347
336 336 337 338 337 337 336 335 335 335 335 335 337 340 345 350 347 350 353 355 356 358 358 358 358 355 354 349 342 342 340 337 342
335 334 334 334 333 333 333 332 332 332 332 332 332 332 332 345 350 348 350 355 355 356 355 359 357 346 344 340 334 332 331 337 339

GFSFLT1_850_thetae_027.txt.gz
Theta_e
346 348 348 349 350 349 347 346 345 345 346 347 347 345 345 346 347 347 347 347 347 346 346 343 340 342 343 344 346 347 348 340 332
343 346 348 348 348 347 346 346 346 346 344 344 345 346 346 346 346 347 347 348 347 347 347 346 341 342 344 342 344 347 348 346 337
337 339 344 346 348 348 347 346 346 345 343 341 341 342 345 346 345 346 347 347 347 347 348 348 346 342 343 343 344 347 347 348 344
335 337 338 341 344 346 345 346 347 346 345 343 341 341 342 344 345 345 346 347 347 346 347 348 348 346 343 342 346 346 345 347 347
335 338 339 336 340 344 346 345 345 345 345 345 343 341 342 343 343 344 345 345 346 346 346 347 348 347 345 342 343 344 344 346 347
329 331 337 337 340 340 340 342 343 343 343 343 343 343 342 343 343 344 344 344 345 346 346 346 347 348 346 343 340 344 342 345 347
328 327 330 332 334 336 338 339 341 342 341 342 343 343 343 343 343 343 344 344 345 345 346 346 347 348 348 340 340 342 341 342 347
329 330 328 328 329 332 335 338 339 340 341 341 342 343 343 342 343 343 344 344 344 345 346 346 346 347 348 345 339 341 341 341 347
328 327 326 327 330 332 334 335 338 339 340 340 341 341 341 342 343 343 343 343 343 344 345 346 346 347 348 348 339 338 340 341 345
328 327 326 326 327 328 327 329 331 338 340 340 341 341 341 342 343 343 343 344 344 343 344 345 345 346 347 348 346 336 338 339 340
327 326 326 326 326 326 326 326 331 337 340 340 340 341 341 342 343 342 343 345 345 344 344 344 345 346 346 347 346 340 337 338 341
324 325 326 326 326 326 326 326 327 335 340 340 340 340 341 342 342 343 344 345 345 345 345 344 344 346 346 345 344 342 342 340 340
325 325 325 326 326 326 328 329 331 336 339 340 341 341 341 342 342 343 343 343 345 346 347 345 345 345 346 346 344 343 343 344 342
325 326 326 326 326 325 326 326 328 332 337 339 339 341 342 343 343 344 346 348 350 350 350 352 346 346 345 346 346 346 345 346 348
330 333 328 326 325 326 327 329 332 333 334 335 337 339 340 341 342 344 346 348 347 340 351 354 354 354 350 346 347 347 347 347 347
345 347 340 334 329 327 328 330 335 338 339 340 340 341 342 343 344 345 347 349 350 351 353 353 352 356 355 354 352 348 349 349 350
350 349 349 347 346 344 343 339 335 334 336 337 338 339 340 342 345 347 349 352 355 353 352 340 334 354 356 355 352 352 351 352 351
337 338 338 338 338 338 338 337 337 337 337 338 340 343 346 345 344 345 348 349 350 352 350 344 341 351 351 356 352 352 354 355 353
335 335 334 334 334 333 333 332 332 332 332 332 332 332 332 334 341 350 353 351 349 352 353 351 352 350 355 353 346 352 350 354 345
336 334 333 333 334 334 335 335 335 334 333 333 333 334 333 338 337 349 354 350 351 354 356 355 356 347 345 349 354 351 349 347 337

GFSFLT1_850_thetae_030.txt.gz
Theta_e
342 347 349 349 351 351 352 351 349 351 351 343 342 343 343 344 345 349 353 353 353 353 351 350 351 351 343 343 343 344 346 349 346
336 343 348 350 350 351 352 353 352 350 346 343 344 344 344 345 345 346 352 352 352 353 353 352 353 352 341 342 342 343 345 349 342
337 342 347 349 350 350 352 353 354 353 344 339 340 344 345 345 345 346 346 347 348 349 353 350 353 352 347 346 343 341 344 347 346
336 340 345 347 347 349 350 352 354 355 355 349 342 340 340 343 344 345 345 345 346 347 347 348 347 348 345 348 349 341 342 346 351
336 338 339 341 344 346 348 350 352 353 354 355 349 343 339 339 340 341 343 344 345 345 347 347 347 348 348 345 351 347 343 344 349
333 335 338 340 341 342 346 348 350 351 353 353 354 353 347 342 339 340 341 341 342 344 345 346 346 347 348 347 346 347 341 343 344
332 334 336 337 338 340 343 345 348 350 350 352 352 354 355 349 342 340 340 341 341 342 343 345 346 346 347 348 347 345 342 340 342
331 332 333 336 341 342 344 345 347 350 350 350 351 352 355 353 344 343 342 341 342 342 343 344 345 346 346 347 348 351 340 337 339
329 329 329 330 335 340 343 345 347 348 346 348 350 351 350 352 349 345 343 343 342 343 343 344 344 345 346 346 347 350 346 336 337
328 329 330 332 333 336 341 343 340 344 339 349 350 347 350 350 350 345 343 345 346 344 344 345 344 344 345 346 346 347 345 338 337
328 328 329 331 331 332 337 340 338 345 347 345 346 346 345 346 348 347 349 349 346 344 345 346 346 344 345 346 346 346 346 346 341
328 329 330 331 331 332 333 335 338 340 347 349 350 344 342 341 343 352 356 349 343 346 350 351 355 356 353 347 346 346 346 347 348
328 330 330 330 330 331 332 330 332 341 345 348 346 341 341 343 341 344 346 344 349 351 356 356 357 356 355 354 349 349 348 347 347
335 334 333 333 333 329 330 328 332 333 343 343 340 352 352 346 342 341 343 343 344 346 349 356 355 355 351 352 354 349 350 348 347
338 337 342 345 338 330 332 331 326 327 328 334 346 348 349 349 348 347 355 348 347 348 349 349 349 349 351 345 346 347 346 346 346
336 340 345 348 336 338 344 332 330 331 330 333 344 347 346 347 347 346 347 351 354 358 357 356 356 355 358 355 347 345 345 346 348
346 349 353 352 348 347 349 339 343 342 338 339 339 340 341 344 356 357 359 358 360 358 358 358 356 355 356 354 354 349 347 349 351
348 350 348 349 351 351 350 348 348 348 349 354 350 354 357 358 358 358 360 359 359 359 358 359 359 358 358 358 357 354 349 350 349
345 346 345 345 345 345 345 344 338 336 337 338 345 353 353 353 353 355 357 358 359 358 358 359 356 357 356 353 352 354 354 352 353
341 343 344 346 347 347 347 346 338 333 332 332 333 337 339 346 347 348 349 352 356 357 360 353 353 352 352 350 347 352 353 354 354

GFSFLT1_850_thetae_033.txt.gz
Theta_e
340 343 347 350 351 352 350 349 349 350 352 353 355 346 352 342 343 355 353 352 351 351 350 349 348 350 352 352 355 349 353 354 353
339 342 346 348 350 352 352 351 350 350 352 351 344 344 340 340 340 344 355 355 353 356 353 350 349 352 354 355 354 354 352 354 353
337 339 344 347 349 351 353 353 352 351 351 347 334 336 337 340 343 344 347 354 355 356 355 353 353 351 354 354 353 352 352 353 354
336 337 341 346 349 350 352 353 354 354 354 355 351 338 338 341 343 344 345 345 349 351 353 355 351 355 353 349 347 350 351 350 353
335 337 339 345 349 349 350 352 354 355 355 356 354 346 340 340 342 343 345 345 346 347 348 348 352 350 353 350 346 350 352 349 350
336 337 340 345 347 348 349 350 352 354 356 356 357 357 355 351 344 343 343 344 343 345 346 346 347 351 351 349 348 347 347 348 339
336 337 339 341 342 343 347 348 351 353 354 355 356 357 358 357 354 342 341 342 341 341 342 343 344 348 349 349 347 348 345 339 341
334 335 336 337 340 342 343 346 349 352 352 354 355 356 357 358 357 356 353 348 341 337 340 340 341 343 346 347 348 353 349 345 342
332 332 332 333 333 339 343 343 348 350 353 352 354 355 356 358 359 359 359 356 348 342 339 339 338 340 343 345 351 354 354 352 348
331 331 331 331 332 334 340 343 346 349 352 354 352 353 356 356 358 360 360 359 357 348 342 343 341 341 343 344 345 346 349 352 353
331 331 331 331 331 333 335 337 340 348 349 353 353 353 354 356 357 359 360 359 359 358 355 352 349 346 346 344 343 344 345 347 350
330 330 330 331 331 332 333 335 337 341 348 349 350 351 353 353 358 359 360 352 351 355 358 357 352 352 351 348 345 345 344 346 347
334 331 331 331 332 333 333 334 335 336 339 346 350 342 350 354 357 359 359 352 351 355 357 351 357 356 353 350 346 344 343 344 347
342 343 342 340 338 337 336 336 336 338 339 341 343 354 354 356 355 358 357 355 350 351 356 360 358 357 355 352 346 344 343 343 344
342 344 343 341 341 345 347 339 340 343 343 334 347 350 354 356 358 359 360 356 356 360 361 361 358 359 356 355 350 346 347 345 343
345 345 343 337 339 348 342 343 344 345 346 350 351 351 353 356 358 358 357 360 360 362 361 362 361 361 362 359 358 361 358 353 352
346 346 348 351 351 349 345 353 355 353 352 355 354 355 355 357 360 360 361 360 363 362 362 362 360 361 361 360 362 360 361 361 361
346 349 354 352 354 356 357 359 361 361 361 359 359 359 360 360 360 360 362 362 360 362 361 361 361 361 360 360 359 358 359 361 362
349 349 350 351 352 352 352 351 352 352 352 362 362 361 361 359 358 360 361 361 363 360 360 361 360 358 360 361 361 359 359 360 359
346 347 348 351 352 351 351 351 346 337 346 352 352 355 354 354 352 352 353 356 358 357 358 359 357 357 359 359 359 358 359 355 356

GFSFLT1_850_thetae_036.txt.gz
Theta_e
343 347 348 352 353 351 349 348 350 352 352 351 349 347 346 342 349 352 345 347 348 347 350 352 351 351 349 346 344 348 352 345 352
342 344 346 350 352 352 350 349 349 351 352 351 350 346 347 343 343 344 340 347 348 351 349 351 350 349 350 350 349 345 348 349 346
340 341 344 349 352 353 352 350 349 350 352 351 347 346 340 337 334 336 338 342 349 350 354 349 352 350 349 350 351 350 350 347 346
339 341 343 347 352 352 354 352 351 351 352 353 352 347 337 335 336 334 333 338 345 350 353 357 349 356 352 350 350 347 350 349 348
338 339 344 346 350 352 354 355 353 353 353 354 354 351 349 342 338 334 334 337 340 346 351 351 357 351 357 353 352 345 346 345 343
337 339 339 345 349 351 353 354 355 355 354 355 358 359 355 351 341 338 337 338 340 343 345 348 349 353 352 354 352 350 344 341 339
337 339 337 344 348 350 352 354 355 355 356 356 356 359 360 357 353 346 340 340 340 340 342 343 345 347 350 353 352 350 349 347 344
338 340 342 344 346 351 350 351 353 355 356 357 357 357 359 359 357 355 352 352 347 345 342 340 341 343 347 352 354 350 349 349 349
337 336 338 339 340 341 346 351 352 352 355 356 357 357 357 359 358 358 359 357 356 354 351 347 346 345 343 345 347 345 344 345 350
333 333 333 334 333 334 337 341 352 355 354 355 357 356 357 358 359 358 359 359 359 359 355 353 350 347 342 339 340 341 342 343 346
333 333 332 332 332 333 334 336 343 350 354 355 354 356 357 358 359 359 359 359 359 359 359 356 353 353 347 342 336 337 340 342 344
332 332 332 332 332 332 333 339 341 343 345 350 354 354 354 355 358 359 360 360 359 361 361 360 357 354 353 345 342 340 339 341 345
343 344 345 343 341 338 332 335 335 345 344 348 347 344 344 352 356 356 359 360 362 362 361 360 361 358 355 353 347 345 345 349 353
342 343 344 344 342 341 340 337 337 337 344 347 345 343 347 347 348 351 357 360 364 365 364 365 364 363 362 357 349 347 349 350 356
341 344 346 345 343 341 343 346 336 336 338 336 339 344 349 351 351 354 357 362 363 366 365 365 363 363 362 356 352 354 356 357 359
344 347 347 347 343 338 337 349 346 338 340 342 343 344 348 351 354 357 359 362 364 365 364 363 363 363 363 363 362 364 364 363 363
343 349 349 356 355 353 351 346 349 351 343 345 353 352 355 354 356 358 360 358 364 363 364 363 364 366 366 364 365 366 365 364 365
339 342 352 352 355 358 358 360 362 362 361 359 353 350 358 360 360 362 363 363 361 366 363 364 365 365 363 362 364 365 362 363 364
338 344 351 351 352 355 356 355 356 359 361 361 362 360 361 361 362 362 362 365 362 360 363 364 362 362 362 362 362 361 361 361 361
338 341 349 349 350 351 351 352 351 345 349 360 363 362 362 361 360 361 361 360 364 364 361 359 360 361 361 360 359 358 358 358 359

GFSFLT1_850_thetae_039.txt.gz
Theta_e
349 350 348 349 349 348 348 348 348 348 348 347 348 348 347 345 347 350 349 345 346 345 347 346 347 349 350 346 344 344 342 346 344
348 349 350 350 349 348 348 348 347 348 349 349 348 349 348 345 344 347 344 343 346 346 347 349 349 351 350 350 349 345 343 343 343
346 348 350 352 350 349 348 347 347 348 349 349 349 349 348 342 337 339 341 340 343 347 347 348 352 351 351 350 349 349 347 342 341
342 347 349 352 351 350 350 348 347 347 349 350 350 349 347 345 339 337 339 339 337 343 347 347 349 353 353 350 349 349 349 345 343
338 345 346 352 352 351 351 349 348 348 348 348 348 347 347 349 346 340 338 338 335 336 340 347 348 349 350 355 352 350 350 344 340
334 341 345 352 353 353 352 351 350 349 348 348 347 348 348 347 348 347 340 337 335 333 334 338 348 354 353 352 354 354 352 351 338
335 340 346 351 353 354 353 352 351 350 350 349 349 349 349 348 346 347 343 335 333 333 332 334 339 348 355 353 351 352 354 352 349
338 338 345 350 352 353 354 353 352 352 351 351 351 351 351 350 349 346 342 339 334 332 333 336 338 340 344 349 352 352 351 350 350
335 338 343 347 351 352 354 354 354 354 353 353 353 353 353 353 354 353 352 343 339 335 333 336 339 340 341 343 345 347 348 348 348
333 333 333 334 338 347 353 354 355 354 354 354 355 354 354 354 355 355 355 354 353 345 339 339 339 342 342 342 343 345 347 347 347
334 334 333 332 332 334 335 340 353 353 354 355 355 356 356 356 356 356 356 356 356 356 354 350 348 347 345 343 342 342 344 347 349
343 343 339 336 336 335 333 335 335 349 354 354 355 355 357 356 357 357 357 357 357 357 358 357 356 355 353 351 347 345 343 348 351
343 343 343 337 332 336 338 340 340 339 348 354 354 354 353 356 357 357 357 358 358 358 358 358 358 358 357 355 353 353 354 355 355
346 346 346 343 339 338 340 342 340 343 345 347 345 349 353 355 354 355 356 358 359 360 359 360 360 359 359 359 357 359 361 361 360
345 350 349 350 346 343 339 342 346 343 344 350 345 344 346 343 343 345 351 355 358 360 362 362 362 362 362 362 362 362 363 364 364
337 345 352 354 354 354 343 338 342 344 345 339 340 347 349 349 349 349 350 350 354 360 363 365 365 365 365 364 364 363 363 364 364
337 336 345 352 351 355 359 352 346 346 345 343 340 346 343 341 346 353 355 356 358 360 363 364 366 366 364 363 363 362 361 361 361
337 336 331 346 351 352 354 358 360 353 348 344 342 342 348 352 354 353 354 356 359 361 363 363 362 361 361 360 361 362 364 364 365
328 336 333 333 348 348 350 354 353 356 359 361 360 359 354 354 356 357 357 359 361 362 363 365 363 362 363 366 364 364 364 363 362
320 331 333 331 344 348 348 350 350 350 345 349 361 361 360 362 362 361 357 360 361 362 361 361 362 365 365 364 362 361 360 360 359